This is the latest recevied weather packets stored in our database for station/object OH7GGX-14. If no packets are shown the sender has not sent any weather packets the latest 10 day(s).
| Time | Temp. | Humidity | Pressure | Rain* | Wind** | Luminosity | Snow |
|---|---|---|---|---|---|---|---|
| 1788011816 | 18.33° C | 78% | 1022.1 hPa | 0 mm | - | - | - |
| 1788011216 | 18.33° C | 78% | 1022.3 hPa | 0 mm | - | - | - |
| 1788010616 | 18.33° C | 73% | 1022.2 hPa | 0 mm | - | - | - |
| 1788010016 | 18.33° C | 70% | 1022.4 hPa | 0 mm | - | - | - |
| 1788009416 | 18.33° C | 70% | 1022.3 hPa | 0 mm | - | - | - |
| 1788008816 | 18.33° C | 69% | 1022.4 hPa | 0 mm | - | - | - |
| 1788008216 | 18.33° C | 70% | 1022.4 hPa | 0 mm | - | - | - |
| 1788007616 | 18.33° C | 67% | 1022.7 hPa | 0 mm | - | - | - |
| 1788007016 | 18.89° C | 65% | 1022.8 hPa | 0 mm | - | - | - |
| 1788006416 | 18.89° C | 63% | 1022.9 hPa | 0 mm | - | - | - |
| 1788005816 | 18.89° C | 63% | 1023 hPa | 0 mm | - | - | - |
| 1788005216 | 18.33° C | 64% | 1023 hPa | 0 mm | - | - | - |
| 1788004616 | 18.33° C | 66% | 1023.2 hPa | 0 mm | - | - | - |
| 1788004016 | 18.33° C | 63% | 1023.4 hPa | 0 mm | - | - | - |
| 1788003416 | 18.33° C | 62% | 1023.5 hPa | 0 mm | - | - | - |
| 1788002816 | 18.33° C | 63% | 1023.8 hPa | 0 mm | - | - | - |
| 1788002216 | 18.33° C | 65% | 1023.9 hPa | 0 mm | - | - | - |
| 1788001616 | 18.33° C | 65% | 1024.1 hPa | 0 mm | - | - | - |
| 1788001016 | 18.33° C | 65% | 1024.2 hPa | 0 mm | - | - | - |
| 1788000416 | 18.33° C | 65% | 1024.4 hPa | 0 mm | - | - | - |
| 1787999816 | 18.33° C | 64% | 1024.4 hPa | 0 mm | - | - | - |
| 1787999216 | 17.78° C | 64% | 1024.5 hPa | 0 mm | - | - | - |
| 1787998616 | 17.78° C | 66% | 1024.5 hPa | 0 mm | - | - | - |
| 1787998016 | 17.22° C | 68% | 1024.6 hPa | 0 mm | - | - | - |
| 1787997416 | 17.22° C | 69% | 1024.6 hPa | 0 mm | - | - | - |
* Rain latest hour (hover to see other rain measurements)
** Current wind speed in m/s (hover to see current wind gust speed)